Starlink 5876

operational
NORAD ID: 56321 Int'l Des: 2023-058 Owner: SPXS Country: US Constellation: starlink
LEOCIRCULARRETROGRADESSO

Über Starlink 5876

Beschreibung wird geladen...

Live-Position

3D-Globus wird geladen...

Nächste Überflüge

Höhenverlauf

Altitude vs Time

uPlot chart will show altitude changes over time

Zweizeiliger Elementsatz

1 56321U 23058E 26036.01904677 -.00087091 00000-0 -61120-2 0 9995
2 56321 97.6054 39.0548 0001406 69.2670 290.8707 15.05610924152936
Epoch: 5. Feb. 2026 • Age: 15 hours

Aktueller Status

Höhe 554.0 km
Geschwindigkeit 7.59 km/s
Subsatellitenpunkt 32.11°N, 143.34°W
Startdatum 27. Apr. 2023
Alter 2.7 years
Typ internet

Technische Details

Klassifizierung Payload
Masse 300.00 kg
Trockenmasse 260.00 kg
Gesamtmasse 300.00 kg
Länge 0.20 m
Durchmesser 2.80 m
Spannweite 9.00 m
Form Box + pan
Hersteller SPXS
Bus-Typ Starlink
Phasenstatus In Orbit
Besitzer/Staat SPXS/US

Große Konstellationen

Loading constellations...